User: anonymous   Login
Location: Eurasberg
(48.3353°N, 11.0839°E)
Time: 13:30:42
(UTC+00:00)
Language:

Thor Agena Rocket - Orbit

View from above orbital plane
View from above orbital plane
View from above satellite
View from above satellite

Ground track
Ground track

The orbit is defined by the following mean orbital elements,

1 00733U          26069.01057468 +.00000000 +00000-0 +11427-3 0 00008
2 00733  99.1226  82.3655 0031972 257.1553 102.6057 14.34020282    00
Epoch (UTC): 10 March 2026 00:15:13
Eccentricity: 0.0031972
inclination: 99.1226°
perigee height: 755 km
apogee height: 801 km
right ascension of ascending node: 82.3655°
argument of perigee: 257.1553°
revolutions per day: 14.34020282
mean anomaly at epoch: 102.6057°

The dashed part of the orbit path shows where the satellite is in the earth's shadow,  

DLR